22 mai 2022

Temps Code Temps Temp. Vue Des nuages Vent METAR/SPECI
08:20
V
14 °C 10 km+ - Var   Var 1 kt METAR EDDG 220620Z VRB01KT CAVOK 14/10 Q1018 NOSIG
07:50
V
13 °C 10 km+ - Var   Var 1 kt METAR EDDG 220550Z VRB01KT CAVOK 13/09 Q1018 NOSIG
07:20
V
11 °C 10 km+ - Var   000° 0 kt METAR EDDG 220520Z 00000KT CAVOK 11/09 Q1018 NOSIG
06:50
V
8 °C 10 km+ - Var   Var 1 kt METAR EDDG 220450Z VRB01KT CAVOK 08/08 Q1018 NOSIG
06:20
V
7 °C 10 km+ - Var   Var 1 kt METAR EDDG 220420Z VRB01KT 9999 0900NW R25/P2000N BCFG FEW001 07/06 Q1018 NOSIG
05:50
V
6 °C 10 km+ - 140°   140° 1 kt METAR EDDG 220350Z 14001KT 9999 0900W R25/P2000N BCFG FEW001 06/06 Q1018 TEMPO 2000 BCFG
05:20
V
6 °C 10 km+ - Var   Var 1 kt METAR EDDG 220320Z VRB01KT 9999 0900W R25/1400D BCFG NSC 06/06 Q1018 TEMPO 2000 BCFG
04:50
V
6 °C 10 km+ - Var   Var 1 kt METAR EDDG 220250Z VRB01KT 9999 0200N R25/0750U BCFG NSC 06/06 Q1018 TEMPO 2000 BCFG
04:20
V
7 °C 10 km+ - Var   Var 2 kt METAR EDDG 220220Z VRB02KT 9999 2500NW BCFG NSC 07/07 Q1019 TEMPO 2000 BCFG
03:50
V
7 °C 10 km+ - Var   Var 1 kt METAR EDDG 220150Z VRB01KT CAVOK 07/07 Q1018 NOSIG
03:20
V
8 °C 10 km+ - Var   Var 1 kt METAR EDDG 220120Z VRB01KT CAVOK 08/07 Q1019 NOSIG
02:50
V
8 °C 10 km+ - Var   Var 1 kt METAR EDDG 220050Z VRB01KT CAVOK 08/08 Q1019 NOSIG
02:20
V
8 °C 10 km+ - 200°   200° 1 kt METAR EDDG 220020Z 20001KT CAVOK 08/08 Q1019 NOSIG
01:50
V
8 °C 10 km+ - Var   Var 1 kt METAR EDDG 212350Z VRB01KT CAVOK 08/08 Q1019 NOSIG
01:20
V
9 °C 10 km+ - Var   Var 1 kt METAR EDDG 212320Z VRB01KT CAVOK 09/08 Q1019 NOSIG
00:50
V
9 °C 10 km+ - Var   Var 1 kt METAR EDDG 212250Z VRB01KT CAVOK 09/08 Q1019 NOSIG
00:20
V
10 °C 10 km+ - Var   Var 1 kt METAR EDDG 212220Z VRB01KT CAVOK 10/08 Q1020 NOSIG

21 mai 2022

Temps Code Temps Temp. Vue Des nuages Vent METAR/SPECI
23:50
V
11 °C 10 km+ - 320°   320° 2 kt METAR EDDG 212150Z 32002KT CAVOK 11/09 Q1020 NOSIG
23:20
V
13 °C 10 km+ - 310°   310° 3 kt METAR EDDG 212120Z 31003KT 290V350 CAVOK 13/08 Q1020 NOSIG
22:50
V
13 °C 10 km+ - 310°   310° 3 kt METAR EDDG 212050Z 31003KT CAVOK 13/09 Q1020 NOSIG
22:20
V
14 °C 10 km+ - 320°   320° 4 kt METAR EDDG 212020Z 32004KT CAVOK 14/09 Q1020 NOSIG
21:50
V
15 °C 10 km+ - 320°   320° 5 kt METAR EDDG 211950Z 32005KT CAVOK 15/09 Q1020 NOSIG
21:20
V
16 °C 10 km+ - 310°   310° 5 kt METAR EDDG 211920Z 31005KT 270V350 9999 FEW040 16/09 Q1020 NOSIG
20:50
V
16 °C 10 km+ - 320°   320° 7 kt METAR EDDG 211850Z 32007KT 9999 FEW040 16/09 Q1020 NOSIG
20:20
V
17 °C 10 km+ - 300°   300° 6 kt METAR EDDG 211820Z 30006KT 270V340 9999 FEW040 17/08 Q1019 NOSIG
19:50
V
17 °C 10 km+ - 290°   290° 6 kt METAR EDDG 211750Z 29006KT 9999 FEW045 17/08 Q1019 NOSIG
19:20
V
17 °C 10 km+ - 290°   290° 7 kt METAR EDDG 211720Z 29007KT 9999 FEW045 17/08 Q1019 NOSIG
18:50
V
18 °C 10 km+ - 280°   280° 9 kt METAR EDDG 211650Z 28009KT 9999 FEW045 18/08 Q1019 NOSIG
18:20
V
18 °C 10 km+ - 280°   280° 11 kt METAR EDDG 211620Z 28011KT 250V320 9999 FEW040 18/07 Q1020 NOSIG
17:50
V
18 °C 10 km+ - 270°   270° 11 kt METAR EDDG 211550Z 27011KT 9999 FEW037 18/09 Q1020 NOSIG
17:20
V
19 °C 10 km+ - 280°   280° 12 kt METAR EDDG 211520Z 28012KT 250V310 9999 FEW037 19/09 Q1020 NOSIG
16:50
V
18 °C 10 km+ - 280°   280° 11 kt METAR EDDG 211450Z 28011KT 250V310 9999 FEW037 18/09 Q1020 NOSIG
16:20
V
18 °C 10 km+ - 270°   270° 12 kt METAR EDDG 211420Z 27012KT 9999 FEW037 18/09 Q1020 NOSIG
15:50
V
18 °C 10 km+ - 270°   270° 15 kt METAR EDDG 211350Z 27015KT 9999 FEW037 18/09 Q1020 NOSIG
15:20
V
18 °C 10 km+ - 260°   260° 12 kt METAR EDDG 211320Z 26012KT 9999 FEW037 18/09 Q1020 NOSIG
14:50
V
17 °C 10 km+ - 260°   260° 12 kt METAR EDDG 211250Z 26012KT 9999 FEW035 17/09 Q1020 NOSIG
14:20
V
17 °C 10 km+ - 250°   250° 15 kt METAR EDDG 211220Z 25015KT 9999 FEW033 17/09 Q1020 NOSIG
13:50
V
17 °C 10 km+ - 240°   240° 16 kt METAR EDDG 211150Z 24016KT 9999 FEW033 17/09 Q1020 NOSIG
13:20
V
18 °C 10 km+ - 260°   260° 11 kt METAR EDDG 211120Z 26011KT 9999 FEW033 SCT036 18/10 Q1020 NOSIG
12:50
V
17 °C 10 km+ - 250°   250° 14 kt METAR EDDG 211050Z 25014KT 9999 FEW028 SCT032 17/09 Q1020 NOSIG
12:20
V
17 °C 10 km+ - 250°   250° 14 kt METAR EDDG 211020Z 25014KT 9999 FEW021 SCT025 17/10 Q1020 NOSIG
11:50
V
16 °C 10 km+ - 250°   250° 11 kt METAR EDDG 210950Z 25011KT 9999 -SHRA FEW019 SCT022TCU 16/10 Q1020 NOSIG
11:20
V
16 °C 10 km+ - 240°   240° 12 kt METAR EDDG 210920Z 24012KT 9999 FEW017 SCT020 16/10 Q1019 NOSIG
10:50
V
15 °C 10 km+ - 250°   250° 14 kt METAR EDDG 210850Z 25014KT 9999 FEW017 SCT020 15/11 Q1019 NOSIG
10:20
M
15 °C 10 km+ 1.900 ft 250°   250° 15 kt METAR EDDG 210820Z 25015KT 9999 FEW016 BKN019 15/10 Q1019 NOSIG
09:50
V
15 °C 10 km+ - 250°   250° 16 kt METAR EDDG 210750Z 25016KT 9999 FEW015 SCT017 15/10 Q1019 NOSIG
09:20
M
14 °C 10 km+ 1.700 ft 250°   250° 15 kt METAR EDDG 210720Z 25015KT 9999 FEW015 BKN017 14/10 Q1019 NOSIG
08:50
M
14 °C 10 km+ 1.600 ft 230°   230° 14 kt METAR EDDG 210650Z 23014KT 9999 FEW014 BKN016 14/10 Q1019 NOSIG
08:20
M
14 °C 10 km+ 1.700 ft 240°   240° 12 kt METAR EDDG 210620Z 24012KT 9999 FEW013 BKN017 14/10 Q1019 NOSIG
07:50
M
13 °C 10 km+ 1.700 ft 220°   220° 12 kt METAR EDDG 210550Z 22012KT 9999 FEW013 BKN017 13/10 Q1018 NOSIG
07:20
M
13 °C 10 km+ 1.700 ft 230°   230° 11 kt METAR EDDG 210520Z 23011KT 9999 FEW013 BKN017 13/10 Q1019 NOSIG
06:50
M
13 °C 10 km+ 1.400 ft 230°   230° 11 kt METAR EDDG 210450Z 23011KT 200V260 9999 BKN014 13/10 Q1018 BECMG SCT015 BKN020
06:20
M
12 °C 10 km+ 1.400 ft 220°   220° 10 kt METAR EDDG 210420Z 22010KT 190V260 9999 BKN014 12/10 Q1018 BECMG SCT015 BKN020
05:50
M
12 °C 10 km+ 1.400 ft 230°   230° 10 kt METAR EDDG 210350Z 23010KT 9999 BKN014 12/10 Q1018 NOSIG
05:20
M
12 °C 10 km+ 1.400 ft 230°   230° 10 kt METAR EDDG 210320Z 23010KT 200V260 9999 BKN014 12/09 Q1018 NOSIG
04:50
M
12 °C 10 km+ 1.400 ft 230°   230° 10 kt METAR EDDG 210250Z 23010KT 9999 BKN014 12/09 Q1018 NOSIG
04:20
M
12 °C 10 km+ 1.500 ft 220°   220° 9 kt METAR EDDG 210220Z 22009KT 170V240 9999 BKN015 12/10 Q1018 BECMG BKN014
03:50
M
12 °C 10 km+ 1.600 ft 230°   230° 8 kt METAR EDDG 210150Z 23008KT 9999 BKN016 12/10 Q1018 BECMG BKN014
03:20
V
12 °C 10 km+ - 220°   220° 7 kt METAR EDDG 210120Z 22007KT 190V250 9999 FEW017 SCT022 12/09 Q1018 NOSIG
02:50
V
12 °C 10 km+ - 240°   240° 7 kt METAR EDDG 210050Z 24007KT 9999 FEW018 SCT029 12/09 Q1018 NOSIG
02:20
V
12 °C 10 km+ - 250°   250° 11 kt METAR EDDG 210020Z 25011KT 9999 SCT017 SCT026 12/09 Q1019 NOSIG
01:50
V
12 °C 10 km+ - 260°   260° 11 kt METAR EDDG 202350Z 26011KT 9999 FEW014 SCT017 12/10 Q1018 NOSIG
01:20
V
12 °C 10 km+ 4.100 ft 260°   260° 14 kt METAR EDDG 202320Z 26014KT 9999 SCT016 BKN041 12/10 Q1018 BECMG 25008KT
00:50
M
12 °C 10 km+ 1.600 ft 260°   260° 15 kt METAR EDDG 202250Z 26015KT 9999 FEW013 BKN016 12/11 Q1018 BECMG 25008KT
00:20
V
13 °C 10 km+ 3.800 ft 270°   270° 14 kt METAR EDDG 202220Z 27014KT 9999 SCT016 BKN038 13/10 Q1018 RESHRA BECMG 25008KT

20 mai 2022

Temps Code Temps Temp. Vue Des nuages Vent METAR/SPECI
23:50
M
13 °C 9 km 1.200 ft 280°   280° 13 kt METAR EDDG 202150Z 28013KT 9000 SHRA FEW008 BKN012TCU 13/12 Q1017 BECMG NSW BKN020
23:20
M
14 °C 10 km+ 1.600 ft 270°   270° 15 kt METAR EDDG 202120Z 27015KT 9999 -RA FEW013 BKN016 14/11 Q1016 TEMPO BKN012
22:50
M
14 °C 10 km+ 1.600 ft 260°   260° 12 kt METAR EDDG 202050Z 26012KT 9999 BKN016 BKN026 14/11 Q1016 TEMPO BKN012
22:20
M
14 °C 10 km+ 2.100 ft 270°   270° 12 kt METAR EDDG 202020Z 27012KT 250V310 9999 SCT016 BKN021 14/11 Q1015 NOSIG
21:50
M
14 °C 10 km+ 1.400 ft 270°   270° 12 kt METAR EDDG 201950Z 27012KT 250V310 9999 BKN014 BKN018 14/11 Q1015 TEMPO BKN015
21:20
M
14 °C 10 km+ 1.300 ft 270°   270° 14 kt METAR EDDG 201920Z 27014KT 9999 FEW011 BKN013 14/12 Q1014 TEMPO BKN015
20:50
M
15 °C 10 km+ 1.200 ft 290°   290° 13 kt METAR EDDG 201850Z 29013KT 260V320 9999 SCT009 BKN012 15/12 Q1013 TEMPO BKN015
20:20
M
16 °C 10 km+ 1.800 ft 270°   270° 22 kt METAR EDDG 201820Z 27022KT 9999 FEW009 SCT012 BKN018 16/14 Q1013 BECMG BKN012
19:50
V
20 °C 10 km+ - 240°   240° 22 38 kt METAR EDDG 201750Z 24022G38KT 180V260 9999 FEW018 SCT022 FEW030TCU 20/15 Q1011 NOSIG
19:20
V
21 °C 10 km+ - 220°   220° 15 kt METAR EDDG 201720Z 22015KT 160V240 9999 FEW018 SCT021 21/17 Q1010 NOSIG
18:50
V
21 °C 10 km+ - 200°   200° 12 kt METAR EDDG 201650Z 20012KT 170V240 9999 SCT023 21/18 Q1010 NOSIG
18:20
V
20 °C 9 km - 160°   160° 9 kt METAR EDDG 201620Z 16009KT 130V200 9000 NSC 20/18 Q1010 NOSIG
17:50
V
19 °C 9 km - 160°   160° 8 kt METAR EDDG 201550Z 16008KT 120V210 9000 FEW019 FEW048TCU 19/18 Q1011 NOSIG
17:20
V
19 °C 10 km+ - 150°   150° 5 kt METAR EDDG 201520Z 15005KT 070V190 9999 -SHRA FEW050CB 19/17 Q1012 NOSIG
16:50
V
18 °C 10 km+ - 100°   100° 4 kt METAR EDDG 201450Z 10004KT 030V190 9999 -SHRA VCTS SCT046CB 18/17 Q1012 RETSRA NOSIG
16:20
V
18 °C 9 km 5.000 ft 110°   110° 3 kt METAR EDDG 201420Z 11003KT 080V140 9000 TSRA BKN050CB 18/16 Q1013 TEMPO 21015G25KT
15:50
V
21 °C 10 km+ - 070°   070° 4 kt METAR EDDG 201350Z 07004KT 010V150 9999 -SHRA FEW030 SCT050CB 21/14 Q1013 TEMPO 23020G35KT 2000 +TSGRRA
15:20
V
22 °C 10 km+ - 120°   120° 4 kt METAR EDDG 201320Z 12004KT 020V180 CAVOK 22/14 Q1014 TEMPO SHRA
14:50
V
23 °C 10 km+ - Var   Var 5 kt METAR EDDG 201250Z VRB05KT CAVOK 23/13 Q1015 NOSIG
14:20
V
22 °C 10 km+ - Var   Var 6 kt METAR EDDG 201220Z VRB06KT CAVOK 22/11 Q1015 NOSIG
13:50
V
21 °C 10 km+ - 140°   140° 6 kt METAR EDDG 201150Z 14006KT 080V180 CAVOK 21/11 Q1016 NOSIG
13:20
V
21 °C 10 km+ - 110°   110° 5 kt METAR EDDG 201120Z 11005KT 020V190 CAVOK 21/12 Q1017 NOSIG
12:50
V
21 °C 10 km+ - Var   Var 4 kt METAR EDDG 201050Z VRB04KT 9999 FEW033 21/11 Q1018 NOSIG
12:20
V
20 °C 10 km+ - Var   Var 5 kt METAR EDDG 201020Z VRB05KT CAVOK 20/09 Q1019 NOSIG
11:50
V
20 °C 10 km+ - Var   Var 4 kt METAR EDDG 200950Z VRB04KT CAVOK 20/11 Q1019 NOSIG
11:20
V
20 °C 10 km+ - Var   Var 2 kt METAR EDDG 200920Z VRB02KT CAVOK 20/11 Q1019 NOSIG
10:50
V
18 °C 10 km+ - 180°   180° 4 kt METAR EDDG 200850Z 18004KT 130V270 CAVOK 18/12 Q1020 NOSIG
10:20
V
18 °C 10 km+ - Var   Var 2 kt METAR EDDG 200820Z VRB02KT CAVOK 18/11 Q1020 NOSIG
09:50
V
18 °C 10 km+ - Var   Var 2 kt METAR EDDG 200750Z VRB02KT CAVOK 18/11 Q1021 NOSIG
09:20
V
16 °C 10 km+ - Var   Var 2 kt METAR EDDG 200720Z VRB02KT CAVOK 16/11 Q1021 NOSIG
08:50
V
16 °C 10 km+ - Var   Var 2 kt METAR EDDG 200650Z VRB02KT 9999 FEW015 16/11 Q1021 NOSIG
08:20
V
16 °C 10 km+ - Var   Var 1 kt METAR EDDG 200620Z VRB01KT 9999 FEW011 16/11 Q1022 NOSIG
07:50
V
15 °C 10 km+ - Var   Var 1 kt METAR EDDG 200550Z VRB01KT 9999 FEW012 15/11 Q1022 NOSIG
07:20
V
14 °C 9 km - Var   Var 2 kt METAR EDDG 200520Z VRB02KT 9000 FEW009 SCT013 14/11 Q1022 NOSIG
06:50
M
13 °C 9 km 1.300 ft Var   Var 2 kt METAR EDDG 200450Z VRB02KT 9000 FEW008 BKN013 13/11 Q1022 BECMG BKN015
Données plus anciennes

Télécharge notre application

Un accès facile à toute la météo aéronautique sur ton téléphone portable et ta tablette.
Avec de nombreuses fonctionnalités non disponibles sur le site Web, comme la prise en charge hors ligne et une liste personnelle d'aéroports.

Nous et des tiers suivons ton comportement sur Internet sur notre site Web à l'aide de cookies. Si tu continues, nous supposons que tu acceptes notre politique en matière de cookies. Apprendre plus